Weather History for Oklahoma City, OK

Change the Weather History Date:

Thursday, February 7, 2013

  Actual Average Record
Temperature  
Mean Temperature 54 °F 42 °F  
Max Temperature 66 °F 53 °F 76 °F (1937)
Min Temperature 41 °F 31 °F -8 °F (1895)
Degree Days  
Heating Degree Days 11 23  
Month to date heating degree days 116 166  
Since 1 July heating degree days 2068 2319  
Growing Degree Days 4 (Base 50)    
Moisture  
Dew Point 49 °F    
Average Humidity 80    
Maximum Humidity 100    
Minimum Humidity 60    
Precipitation  
Precipitation 0.02 in 0.05 in 0.84 in (1980)
Month to date precipitation 0.02 0.34  
Year to date precipitation 1.16 1.73  
Snow  
Snow 0.00 in 0.10 in 6.50 in (1986)
Month to date snowfall 0.0 0.5  
Since 1 July snowfall 1.4 5.8  
Snow Depth -    
Sea Level Pressure  
Sea Level Pressure 29.91 in    
Wind  
Wind Speed 15 mph (NNE)    
Max Wind Speed 32 mph    
Max Gust Speed 41 mph    
Visibility 5 miles    
Events Fog , Rain    
T = Trace of Precipitation, MM = Missing Value Source: NWS Daily Summary

Daily Weather History Graph

Daily Weather History Graph

Search for Another Location

Airport:

Trip Planner

Search our weather history database for the weather conditions in past years. The results will help you decide how hot, cold, wet, or windy it might be!

Date:

Astronomy

Feb. 07, 2013 Rise Set
Actual Time 7:24 AM CST 6:04 PM CST
Civil Twilight 6:58 AM CST 6:31 PM CST
Nautical Twilight 6:28 AM CST 7:01 PM CST
Astronomical Twilight 5:58 AM CST 7:31 PM CST
Moon 5:01 AM CST (2/7) 3:33 PM CST (2/7)
Length of Visible Light 11h 33m
Length of Day
10h 40m
Waning Crescent, 9% of the Moon is Illuminated
Feb 7
Waning Crescent
Feb 10
New
Feb 17
First Quarter
Feb 25
Full
Mar 4
Last Quarter

Hourly Weather History & Observations

Time (CST) Temp. Windchill Dew Point Humidity Pressure Visibility Wind Dir Wind Speed Gust Speed Precip Events Conditions
12:52 AM 54.0 °F - 53.1 °F 97% 29.85 in 1.0 mi SSE 17.3 mph 24.2 mph N/A   Overcast
1:35 AM 53.6 °F - 53.6 °F 100% 29.84 in 0.8 mi SSE 18.4 mph - N/A   Overcast
1:52 AM 54.0 °F - 53.1 °F 97% 29.83 in 0.8 mi SSE 17.3 mph - N/A   Overcast
2:31 AM 53.6 °F - 53.6 °F 100% 29.83 in 1.0 mi SSE 16.1 mph - N/A   Overcast
2:52 AM 54.0 °F - 53.1 °F 97% 29.81 in 1.0 mi SSE 18.4 mph - N/A   Overcast
3:52 AM 54.0 °F - 53.1 °F 97% 29.79 in 1.0 mi SSE 17.3 mph 25.3 mph 0.00 in   Light Drizzle
4:03 AM 53.6 °F - 53.6 °F 100% 29.80 in 0.8 mi SSE 16.1 mph - 0.00 in   Light Drizzle
4:52 AM 55.0 °F - 54.0 °F 96% 29.78 in 0.8 mi SSE 15.0 mph 24.2 mph 0.00 in   Light Drizzle
5:28 AM 55.4 °F - 53.6 °F 94% 29.79 in 0.2 mi SSE 15.0 mph 21.9 mph 0.00 in Fog Light Drizzle
5:52 AM 55.0 °F - 54.0 °F 96% 29.78 in 0.2 mi SSE 15.0 mph - 0.00 in Fog Light Drizzle
6:52 AM 55.0 °F - 54.0 °F 96% 29.78 in 0.2 mi South 13.8 mph - 0.00 in Fog Light Drizzle
6:59 AM 55.4 °F - 53.6 °F 94% 29.79 in 0.2 mi SSE 12.7 mph - 0.00 in Fog Light Drizzle
7:10 AM 55.4 °F - 53.6 °F 94% 29.79 in 0.2 mi SSE 12.7 mph - 0.00 in Fog Light Drizzle
7:52 AM 55.0 °F - 55.0 °F 100% 29.78 in 0.2 mi SSE 15.0 mph - 0.00 in Fog Light Drizzle
8:33 AM 55.4 °F - 55.4 °F 100% 29.86 in 0.5 mi NNW 11.5 mph 19.6 mph 0.00 in   Overcast
8:41 AM 55.4 °F - 55.4 °F 100% 29.87 in 3.0 mi NW 9.2 mph 20.7 mph 0.00 in   Overcast
8:52 AM 57.0 °F - 55.0 °F 93% 29.86 in 4.0 mi Variable 4.6 mph - 0.00 in   Overcast
8:59 AM 57.2 °F - 55.4 °F 94% 29.86 in 4.0 mi North 4.6 mph - N/A   Overcast
9:19 AM 57.2 °F - 55.4 °F 94% 29.87 in 2.0 mi NE 4.6 mph - N/A   Overcast
9:52 AM 57.9 °F - 55.9 °F 93% 29.85 in 2.5 mi East 6.9 mph - 0.00 in   Overcast
10:04 AM 59.0 °F - 55.4 °F 88% 29.87 in 3.0 mi East 5.8 mph - N/A   Overcast
10:52 AM 62.1 °F - 55.9 °F 80% 29.86 in 5.0 mi Calm Calm - N/A   Haze
11:52 AM 64.0 °F - 54.0 °F 70% 29.86 in 9.0 mi North 9.2 mph - N/A   Overcast
12:00 PM 62.6 °F - 53.6 °F 72% 29.87 in 8.0 mi North 11.5 mph - N/A   Overcast
12:47 PM 55.4 °F - 51.8 °F 88% 29.89 in 10.0 mi North 26.5 mph 38.0 mph N/A   Overcast
12:52 PM 55.0 °F - 50.0 °F 83% 29.88 in 10.0 mi North 25.3 mph 35.7 mph N/A   Overcast
1:41 PM 55.4 °F - 46.4 °F 72% 29.92 in 10.0 mi North 21.9 mph 35.7 mph N/A   Overcast
1:52 PM 55.0 °F - 46.9 °F 74% 29.91 in 10.0 mi North 23.0 mph 32.2 mph N/A   Overcast
2:44 PM 53.6 °F - 46.4 °F 77% 29.93 in 10.0 mi North 20.7 mph 31.1 mph 0.00 in Rain Light Rain
2:52 PM 54.0 °F - 46.0 °F 75% 29.93 in 10.0 mi North 21.9 mph 33.4 mph 0.00 in Rain Light Rain
3:14 PM 51.8 °F - 46.4 °F 82% 29.96 in 9.0 mi North 20.7 mph 27.6 mph 0.00 in Rain Light Rain
3:26 PM 51.8 °F - 46.4 °F 82% 29.97 in 7.0 mi NNW 21.9 mph - 0.00 in Rain Light Rain
3:52 PM 51.1 °F - 46.9 °F 86% 29.96 in 5.0 mi North 20.7 mph 28.8 mph 0.01 in Rain Light Rain
4:33 PM 51.8 °F - 46.4 °F 82% 30.00 in 9.0 mi North 16.1 mph - 0.01 in   Overcast
4:52 PM 51.1 °F - 45.0 °F 80% 30.00 in 9.0 mi North 21.9 mph - 0.01 in   Overcast
5:52 PM 51.1 °F - 39.9 °F 66% 30.02 in 10.0 mi North 18.4 mph 25.3 mph 0.00 in   Mostly Cloudy
6:52 PM 50.0 °F - 37.0 °F 61% 30.05 in 10.0 mi North 19.6 mph 28.8 mph N/A   Scattered Clouds
7:52 PM 48.9 °F - 36.0 °F 61% 30.08 in 10.0 mi North 17.3 mph 24.2 mph N/A   Partly Cloudy
8:52 PM 46.9 °F - 36.0 °F 66% 30.11 in 10.0 mi North 13.8 mph - N/A   Partly Cloudy
9:52 PM 46.0 °F 39.6 °F 34.0 °F 63% 30.14 in 10.0 mi North 15.0 mph - N/A   Clear
10:52 PM 43.0 °F 36.8 °F 34.0 °F 71% 30.16 in 10.0 mi NNW 11.5 mph - N/A   Clear
11:52 PM 41.0 °F 34.3 °F 33.1 °F 73% 30.18 in 10.0 mi NNW 11.5 mph - N/A   Clear